| time (UTC) | temp F | wind direction | speed knots | gust knots | rain 1hr in | rain 24hr in | rain mn in | humidity % | barometer mb |
| 20260510060028 | 76 | 152 | 0.0 | 2.6 | 0.00 | 0.00 | 0.00 | 89 | 1009.3 |
| 20260510054517 | 76 | 196 | 0.0 | 0.0 | 0.00 | 0.00 | 0.00 | 90 | 1009.4 |
| 20260510053011 | 77 | 146 | 0.0 | 1.7 | 0.00 | 0.00 | 0.00 | 90 | 1009.4 |
| 20260510051510 | 77 | 134 | 0.0 | 1.7 | 0.00 | 0.00 | 0.00 | 90 | 1009.5 |
| 20260510050007 | 77 | 80 | 0.9 | 7.0 | 0.00 | 0.00 | 0.00 | 89 | 1009.7 |
| 20260510044509 | 77 | 150 | 0.9 | 7.0 | 0.00 | 0.00 | 0.00 | 89 | 1009.8 |
| 20260510043007 | 77 | 120 | 0.9 | 12.2 | 0.00 | 0.00 | 0.00 | 90 | 1010.1 |
| 20260510041506 | 77 | 111 | 7.8 | 15.6 | 0.00 | 0.00 | 0.00 | 90 | 1010.3 |
| 20260510040007 | 78 | 107 | 0.9 | 7.0 | 0.00 | 0.00 | 0.00 | 90 | 1010.4 |
| 20260510034505 | 78 | 108 | 0.0 | 1.7 | 0.00 | 0.00 | 0.00 | 90 | 1010.0 |
| 20260510033004 | 78 | 125 | 0.0 | 6.1 | 0.00 | 0.00 | 0.00 | 90 | 1009.8 |
| 20260510031504 | 78 | 62 | 6.1 | 12.2 | 0.00 | 0.00 | 0.00 | 90 | 1010.1 |
| 20260510030002 | 78 | 66 | 1.7 | 11.3 | 0.00 | 0.00 | 0.00 | 90 | 1009.8 |
| 20260510024601 | 78 | 124 | 5.2 | 13.0 | 0.00 | 0.00 | 0.00 | 88 | 1009.7 |
| 20260510023057 | 79 | 97 | 0.9 | 3.5 | 0.00 | 0.00 | 0.00 | 88 | 1009.3 |
| 20260510021555 | 79 | 98 | 0.0 | 6.1 | 0.00 | 0.00 | 0.00 | 87 | 1009.1 |
| 20260510020054 | 80 | 85 | 0.9 | 2.6 | 0.00 | 0.00 | 0.00 | 84 | 1008.6 |
| 20260510014555 | 80 | 88 | 0.9 | 5.2 | 0.00 | 0.00 | 0.00 | 80 | 1008.2 |
| 20260510013055 | 81 | 153 | 0.0 | 0.0 | 0.00 | 0.00 | 0.00 | 78 | 1007.8 |
| 20260510011552 | 81 | 149 | 0.0 | 0.9 | 0.00 | 0.00 | 0.00 | 76 | 1007.5 |
| 20260510010052 | 82 | 115 | 0.0 | 1.7 | 0.00 | 0.00 | 0.00 | 75 | 1006.7 |
| 20260510004551 | 83 | 156 | 0.0 | 1.7 | 0.00 | 0.00 | 0.00 | 73 | 1006.9 |
| 20260510003057 | 85 | 175 | 0.0 | 0.9 | 0.00 | 0.00 | 0.00 | 64 | 1006.8 |
| 20260510001551 | 85 | 145 | 0.0 | 2.6 | 0.00 | 0.00 | 0.00 | 63 | 1006.7 |
| 20260510000055 | 86 | 138 | 0.0 | 0.0 | 0.00 | 0.00 | 0.00 | 69 | 1006.5 |
| 20260509234602 | 87 | 117 | 0.0 | 0.9 | 0.00 | 0.00 | 0.00 | 68 | 1006.2 |
| 20260509233055 | 87 | 152 | 0.0 | 2.6 | 0.00 | 0.00 | 0.00 | 69 | 1006.2 |
| 20260509231605 | 87 | 148 | 0.0 | 1.7 | 0.00 | 0.00 | 0.00 | 72 | 1006.3 |
| 20260509230054 | 87 | 144 | 0.0 | 1.7 | 0.00 | 0.00 | 0.00 | 72 | 1006.2 |
| 20260509224547 | 87 | 84 | 0.0 | 4.3 | 0.00 | 0.00 | 0.00 | 73 | 1006.1 |
| 20260509223048 | 87 | 74 | 1.7 | 4.3 | 0.00 | 0.00 | 0.00 | 74 | 1006.1 |
| 20260509221546 | 87 | 110 | 1.7 | 7.0 | 0.00 | 0.00 | 0.00 | 74 | 1006.0 |
| 20260509220045 | 88 | 104 | 0.9 | 3.5 | 0.00 | 0.00 | 0.00 | 74 | 1005.9 |
| 20260509214546 | 88 | 83 | 1.7 | 7.8 | 0.00 | 0.00 | 0.00 | 73 | 1005.9 |
| 20260509213046 | 89 | 86 | 1.7 | 10.4 | 0.00 | 0.00 | 0.00 | 72 | 1005.8 |
| 20260509211550 | 91 | 325 | 1.7 | 4.3 | 0.00 | 0.00 | 0.00 | 66 | 1005.9 |
| 20260509210055 | 91 | 245 | 0.9 | 4.3 | 0.00 | 0.00 | 0.00 | 60 | 1005.9 |
| 20260509204538 | 89 | 211 | 0.9 | 5.2 | 0.00 | 0.00 | 0.00 | 66 | 1006.0 |
| 20260509203042 | 89 | 67 | 0.9 | 2.6 | 0.00 | 0.00 | 0.00 | 67 | 1006.1 |
| 20260509201540 | 87 | 70 | 2.6 | 6.1 | 0.00 | 0.00 | 0.00 | 69 | 1006.3 |
| 20260509200034 | 89 | 46 | 2.6 | 5.2 | 0.00 | 0.00 | 0.00 | 71 | 1006.6 |
| 20260509194533 | 90 | 71 | 0.0 | 0.0 | 0.00 | 0.00 | 0.00 | 68 | 1006.6 |
| 20260509193029 | 89 | 203 | 0.0 | 7.0 | 0.00 | 0.00 | 0.00 | 65 | 1006.7 |
| 20260509191527 | 88 | 15 | 2.6 | 4.3 | 0.00 | 0.00 | 0.00 | 67 | 1006.8 |
| 20260509190031 | 89 | 297 | 3.5 | 7.8 | 0.00 | 0.00 | 0.00 | 66 | 1006.9 |
| 20260509184529 | 88 | 304 | 0.9 | 2.6 | 0.00 | 0.00 | 0.00 | 67 | 1007.0 |
| 20260509183028 | 86 | 281 | 0.9 | 4.3 | 0.00 | 0.00 | 0.00 | 71 | 1007.3 |
| 20260509181518 | 85 | 321 | 1.7 | 6.1 | 0.00 | 0.00 | 0.00 | 74 | 1007.6 |
| 20260509180017 | 85 | 342 | 0.9 | 6.1 | 0.00 | 0.00 | 0.00 | 79 | 1007.9 |
| 20260509174508 | 83 | 258 | 0.9 | 5.2 | 0.00 | 0.00 | 0.00 | 80 | 1008.4 |
| 20260509173011 | 83 | 261 | 0.9 | 8.7 | 0.00 | 0.00 | 0.00 | 80 | 1008.5 |
| 20260509171507 | 82 | 196 | 0.9 | 5.2 | 0.00 | 0.00 | 0.00 | 81 | 1008.5 |
| 20260509170004 | 82 | 160 | 1.7 | 7.0 | 0.00 | 0.00 | 0.00 | 82 | 1008.6 |
| 20260509164503 | 82 | 267 | 0.0 | 0.9 | 0.00 | 0.00 | 0.00 | 83 | 1008.7 |
| 20260509163001 | 82 | 208 | 0.0 | 2.6 | 0.00 | 0.00 | 0.00 | 82 | 1008.5 |
| 20260509161559 | 82 | 261 | 0.0 | 1.7 | 0.00 | 0.00 | 0.00 | 85 | 1008.5 |
| 20260509161500 | 82 | 256 | 0.0 | 3.5 | 0.00 | 0.00 | 0.00 | 85 | 1008.5 |
| 20260509160055 | 81 | 206 | 0.0 | 0.9 | 0.00 | 0.00 | 0.00 | 87 | 1008.5 |
| 20260509154605 | 79 | 118 | 0.0 | 0.9 | 0.00 | 0.00 | 0.00 | 89 | 1008.5 |
| 20260509153049 | 78 | 98 | 0.0 | 0.0 | 0.00 | 0.00 | 0.00 | 89 | 1008.0 |
| 20260509151547 | 78 | 48 | 0.0 | 0.9 | 0.00 | 0.00 | 0.00 | 91 | 1008.5 |
| 20260509150050 | 77 | 85 | 0.0 | 0.0 | 0.00 | 0.00 | 0.00 | 93 | 1008.2 |
| 20260509144545 | 77 | 236 | 0.0 | 0.9 | 0.00 | 0.00 | 0.00 | 94 | 1008.4 |
| 20260509143048 | 76 | 220 | 0.0 | 0.9 | 0.00 | 0.00 | 0.00 | 95 | 1008.7 |
| 20260509141540 | 76 | 216 | 0.0 | 5.2 | 0.00 | 0.00 | 0.00 | 96 | 1008.6 |
| 20260509140038 | 76 | 201 | 1.7 | 4.3 | 0.00 | 0.00 | 0.00 | 96 | 1008.5 |
| 20260509134536 | 76 | 258 | 0.0 | 1.7 | 0.00 | 0.00 | 0.00 | 96 | 1008.1 |
| 20260509133034 | 76 | 206 | 0.0 | 3.5 | 0.00 | 0.00 | 0.00 | 96 | 1008.4 |
| 20260509131531 | 76 | 255 | 0.9 | 3.5 | 0.00 | 0.00 | 0.00 | 96 | 1008.6 |
| 20260509130031 | 75 | 204 | 0.0 | 2.6 | 0.00 | 0.00 | 0.00 | 96 | 1008.2 |
| 20260509124538 | 75 | 72 | 0.0 | 0.0 | 0.00 | 0.00 | 0.00 | 96 | 1008.5 |
| 20260509123026 | 75 | 72 | 0.0 | 0.0 | 0.00 | 0.00 | 0.00 | 96 | 1008.5 |
| 20260509121537 | 75 | 72 | 0.0 | 0.0 | 0.00 | 0.00 | 0.00 | 96 | 1008.3 |
| 20260509120022 | 75 | 72 | 0.0 | 0.0 | 0.00 | 0.00 | 0.00 | 96 | 1008.4 |
| 20260509114542 | 75 | 72 | 0.0 | 0.0 | 0.00 | 0.00 | 0.00 | 96 | 1008.3 |
| 20260509113021 | 75 | 72 | 0.0 | 0.0 | 0.00 | 0.00 | 0.00 | 96 | 1008.3 |
| 20260509111520 | 75 | 72 | 0.0 | 0.0 | 0.00 | 0.00 | 0.00 | 96 | 1008.3 |
| 20260509110021 | 75 | 72 | 0.0 | 0.0 | 0.00 | 0.00 | 0.00 | 96 | 1007.9 |
| 20260509104521 | 75 | 72 | 0.0 | 0.0 | 0.00 | 0.00 | 0.00 | 96 | 1007.8 |
| 20260509103019 | 75 | 72 | 0.0 | 0.0 | 0.00 | 0.00 | 0.00 | 96 | 1007.8 |
| 20260509101518 | 75 | 72 | 0.0 | 0.0 | 0.00 | 0.00 | 0.00 | 96 | 1007.7 |
| 20260509100018 | 75 | 72 | 0.0 | 0.0 | 0.00 | 0.00 | 0.00 | 96 | 1007.7 |
| 20260509094523 | 75 | 72 | 0.0 | 0.0 | 0.00 | 0.00 | 0.00 | 95 | 1007.5 |
| 20260509093017 | 74 | 72 | 0.0 | 0.0 | 0.00 | 0.00 | 0.00 | 96 | 1007.5 |
| 20260509091516 | 74 | 72 | 0.0 | 0.0 | 0.00 | 0.00 | 0.00 | 96 | 1007.2 |
| 20260509090041 | 74 | 72 | 0.0 | 0.0 | 0.00 | 0.00 | 0.00 | 95 | 1007.2 |
| 20260509084522 | 74 | 94 | 0.0 | 0.0 | 0.00 | 0.00 | 0.00 | 95 | 1007.3 |
| 20260509083034 | 74 | 178 | 0.0 | 0.0 | 0.00 | 0.00 | 0.00 | 95 | 1007.4 |
| 20260509081518 | 74 | 178 | 0.0 | 0.0 | 0.00 | 0.00 | 0.00 | 95 | 1007.5 |
| 20260509080012 | 74 | 178 | 0.0 | 0.9 | 0.00 | 0.00 | 0.00 | 95 | 1007.6 |
| 20260509074523 | 74 | 178 | 0.0 | 0.0 | 0.00 | 0.00 | 0.00 | 95 | 1007.9 |
| 20260509073008 | 74 | 178 | 0.0 | 0.0 | 0.00 | 0.00 | 0.00 | 95 | 1008.0 |
| 20260509071508 | 74 | 178 | 0.0 | 0.0 | 0.00 | 0.00 | 0.00 | 94 | 1008.1 |
| 20260509070006 | 74 | 178 | 0.0 | 0.0 | 0.00 | 0.00 | 0.00 | 94 | 1008.0 |
| 20260509064504 | 74 | 178 | 0.0 | 0.0 | 0.00 | 0.00 | 0.00 | 94 | 1007.8 |
| 20260509063003 | 74 | 178 | 0.0 | 0.9 | 0.00 | 0.00 | 0.00 | 94 | 1008.1 |
| 20260509061500 | 75 | 178 | 0.0 | 0.0 | 0.00 | 0.00 | 0.00 | 94 | 1008.2 |